Track ORBCOMM FM 34 now! 10-day predictions ORBCOMM FM 34 is classified as:
1 25986U 99065G 22185.34351617 .00000219 00000-0 12975-3 0 9996 2 25986 45.0393 141.8397 0004804 336.1191 23.9432 14.33286863179957